Location: Karcze
(52.0945°N, 22.4786°E)
Time: 00:49:14
(UTC+00:00)

A-11 Canister half - Pass Details

Date: 03 August 2021
Orbit: 1514 x 1685 km, 47.2° (Epoch: 16 September)

Event Time Altitude Azimuth Distance (km) Brightness Sun altitude
Rises 14:03:32 0° 207° (SSW) 4,750 12.1 36.7°
Reaches altitude 10° 14:07:00 10° 197° (SSW) 3,794 11.6 36.2°
Maximum altitude 14:15:09 32° 139° (SE) 2,526 10.2 35.0°
Drops below altitude 10° 14:23:31 10° 82° (E) 3,915 10.7 33.8°
Sets 14:27:08 0° 73° (ENE) 4,922 11.1 33.3°
